Theta_e
300 300 300 300 300 300 301 301 301 301 301 302 302 302 303 305 305 305 306 307 309 310 310 310 310 310 313 316 319 319 320 326 325 325 329 328 331 336 339 338 335 331 329 327 326 326 328
302 302 301 301 301 300 301 301 301 302 302 302 302 302 303 304 305 306 307 308 308 310 311 310 310 310 322 320 318 320 327 325 326 326 331 329 333 337 336 335 330 329 325 325 325 326 327
304 304 304 304 303 302 302 301 301 301 302 303 303 303 304 304 305 306 307 308 309 310 311 311 310 311 322 314 318 325 330 331 328 331 329 330 330 334 330 330 328 323 323 324 325 325 326
306 306 306 307 306 305 303 302 302 302 302 302 303 303 303 304 305 305 307 309 310 311 312 312 311 318 317 315 317 318 319 334 333 332 331 330 330 327 326 324 321 322 322 322 324 324 325
310 310 310 310 310 310 308 305 305 306 306 306 306 306 305 305 305 305 307 310 313 315 316 314 315 320 317 319 323 323 321 322 328 334 331 330 329 325 323 321 319 318 321 321 323 325 324
312 312 312 311 311 309 310 311 309 308 310 311 310 310 311 309 306 305 308 314 318 319 320 321 321 317 316 318 321 322 323 322 332 332 331 331 325 322 319 317 321 320 320 321 322 325 324
314 314 315 315 315 316 315 315 316 316 314 315 312 313 315 316 311 307 311 315 311 313 314 315 316 319 319 320 320 321 321 321 328 331 331 329 326 323 321 320 321 321 321 321 322 324 325
319 319 319 316 316 316 316 315 313 315 316 315 314 314 315 316 315 308 307 312 314 313 310 312 314 315 315 316 316 317 320 318 322 325 327 327 326 327 323 323 323 323 322 322 323 324 324
321 319 318 317 317 315 316 316 316 317 316 316 316 316 316 316 313 310 306 311 313 312 309 311 313 314 314 315 316 317 319 319 318 321 323 326 328 326 324 324 324 323 321 322 323 324 322
320 321 321 319 319 318 318 318 318 318 317 317 316 316 315 314 311 311 309 311 312 312 309 313 315 315 315 316 316 318 318 319 319 319 320 320 322 323 323 324 323 321 323 322 324 323 322
321 320 320 321 320 319 318 317 317 317 317 317 316 314 313 308 308 308 308 309 311 311 315 319 318 319 315 316 318 318 319 317 318 319 318 319 321 321 323 323 324 324 324 323 323 321 320
319 319 319 321 319 320 319 318 318 318 317 316 315 314 309 309 307 313 308 310 311 312 316 319 319 318 317 318 317 318 318 316 318 319 319 320 321 322 322 324 325 324 323 320 318 315 318
317 317 319 319 320 319 319 318 318 317 316 316 315 315 310 306 311 312 312 309 310 313 315 317 317 317 317 318 320 319 317 316 316 318 318 319 319 321 323 323 323 324 318 319 320 319 320
315 318 318 318 317 318 318 317 317 316 316 315 313 314 312 310 312 311 312 308 314 315 316 317 317 316 318 318 320 321 317 316 315 316 317 319 320 319 321 321 322 322 318 319 321 320 321
315 315 318 318 317 317 317 317 317 316 315 313 312 311 309 312 312 311 307 310 312 316 317 316 315 316 317 318 319 319 320 321 318 318 317 318 318 320 320 321 321 322 323 319 318 320 320
315 315 315 315 315 317 316 317 316 315 314 312 305 307 311 313 311 312 308 311 312 314 314 315 315 316 317 317 317 317 319 321 323 323 323 324 323 320 322 322 323 322 322 322 317 323 323
315 315 315 315 315 315 316 317 316 314 313 309 306 307 314 314 313 308 311 310 313 315 315 315 315 314 315 316 318 317 319 320 320 322 322 324 323 324 325 323 323 322 324 322 319 319 322
315 315 315 315 314 315 316 317 315 313 310 307 304 309 314 314 312 309 313 316 316 317 316 317 314 314 316 316 317 318 319 320 320 321 324 325 323 323 324 325 324 323 323 322 325 322 322
314 314 315 315 315 315 317 317 314 311 307 302 301 305 314 314 310 308 308 312 317 318 318 318 316 318 315 316 316 317 319 318 319 322 323 323 324 324 330 324 324 323 322 322 320 319 325
313 311 314 315 315 315 317 316 314 311 308 303 301 307 308 307 308 315 316 318 321 322 320 321 322 320 320 316 316 316 317 319 319 321 341 326 323 327 329 330 327 328 327 327 323 324 323
308 309 311 314 315 315 317 316 314 311 308 303 303 310 308 308 308 308 312 316 320 323 320 319 320 321 321 322 320 320 320 322 323 322 322 321 325 329 329 331 330 331 330 338 330 332 326
304 306 309 314 314 315 315 315 313 311 308 305 306 307 306 307 306 308 312 318 320 324 322 320 321 322 319 322 325 326 324 323 319 319 321 324 324 330 332 333 347 353 348 345 344 344 345
304 305 309 311 314 314 315 315 314 311 307 306 308 307 305 307 306 308 310 312 317 316 321 321 321 322 323 323 324 324 323 319 320 321 321 328 326 327 329 332 334 349 350 347 347 345 344
302 303 308 311 313 314 315 314 314 311 308 304 305 305 306 308 307 308 309 311 312 316 319 321 323 324 323 322 322 323 322 322 321 320 319 326 328 328 329 329 340 341 340 341 342 341 345
302 305 306 310 312 313 315 315 315 311 308 306 305 304 304 307 308 309 309 308 309 312 315 319 320 321 319 322 323 325 326 324 323 322 320 323 324 325 329 333 341 341 339 339 343 342 342
302 305 304 310 311 312 314 315 314 312 309 306 305 304 304 307 307 308 308 307 309 309 314 316 315 313 319 320 323 330 329 330 330 330 324 324 320 323 328 332 334 342 336 334 335 345 341
302 306 306 309 311 312 313 315 314 312 309 306 304 305 305 305 305 306 306 306 306 311 312 314 313 319 324 327 331 331 333 330 336 334 330 331 329 328 330 330 344 337 334 334 334 335 336
301 306 306 310 311 312 314 315 315 312 309 306 306 306 305 304 305 307 307 307 306 307 312 311 313 320 327 327 325 328 329 330 329 331 330 332 334 333 332 336 342 336 337 344 338 338 333
300 306 307 311 311 312 314 315 314 312 309 305 304 306 305 306 306 309 309 308 308 307 305 305 310 325 322 326 327 330 329 328 328 333 328 330 333 335 331 334 334 331 335 334 332 334 334
Wind_Speed
17 17 18 19 19 20 21 22 23 24 25 26 27 28 27 27 29 31 31 30 29 26 26 24 22 21 10 4 10 18 18 9 11 11 7 3 3 2 4 6 9 3 9 11 13 16 17
17 17 18 18 19 20 21 22 23 24 25 27 29 30 31 30 31 31 32 31 30 29 26 25 21 15 2 6 8 12 9 9 9 10 5 8 6 5 6 5 3 5 9 14 11 16 12
17 17 18 18 19 20 21 22 23 25 25 27 28 30 31 32 33 35 35 34 32 30 28 23 19 7 2 18 7 8 11 9 10 13 5 15 21 1 5 8 5 5 9 14 14 10 11
17 18 19 20 21 22 23 24 25 27 28 29 31 31 33 32 33 35 36 37 34 32 31 22 11 3 7 18 22 26 24 20 15 14 17 15 16 5 4 5 9 7 3 5 11 11 19
16 17 18 19 20 20 22 23 25 26 28 31 33 34 35 35 35 37 38 36 32 30 16 4 2 5 9 16 11 20 21 20 23 20 17 19 9 7 3 3 6 6 8 8 17 15 7
15 17 18 20 22 23 24 25 26 27 30 32 34 36 38 39 38 39 36 32 16 6 9 5 1 3 8 8 8 23 22 23 10 5 6 3 1 3 2 5 7 7 7 6 10 16 9
17 18 19 20 21 22 22 22 24 26 28 30 34 35 37 39 38 39 27 16 8 5 12 7 12 8 17 31 37 14 22 7 8 4 6 6 1 7 13 9 12 7 8 14 19 19 6
16 17 18 19 21 22 24 25 26 28 29 31 33 36 39 40 42 21 18 4 3 12 10 9 14 19 29 30 15 26 14 5 8 14 5 1 9 18 12 12 12 12 13 17 16 15 3
18 18 19 19 21 22 24 25 27 29 30 31 33 36 38 41 32 7 26 9 28 32 4 12 10 8 8 13 17 23 5 3 9 11 13 12 19 11 10 15 13 14 8 14 14 6 4
19 20 21 21 21 22 24 25 26 29 30 31 32 35 37 44 9 32 16 24 25 20 5 7 4 7 2 3 6 17 26 8 5 17 18 11 16 14 16 13 13 13 19 16 9 1 5
19 19 21 20 21 23 24 25 27 30 31 31 33 34 37 35 20 11 16 25 28 3 4 6 6 4 3 8 4 9 33 6 12 9 8 15 14 14 14 21 14 15 20 21 11 3 2
20 20 20 20 22 23 23 24 27 29 31 32 34 35 41 21 19 17 19 26 7 5 6 5 4 11 20 15 5 8 6 7 7 11 9 10 9 15 16 19 14 11 6 3 5 4 4
18 21 20 18 21 22 22 24 27 28 30 33 36 37 38 19 6 12 17 5 5 3 6 5 11 16 19 8 13 8 7 9 6 5 8 6 9 11 12 11 16 4 5 4 3 3 8
17 17 18 16 18 19 21 24 26 28 31 35 41 40 32 22 13 7 6 5 2 4 7 12 12 19 3 10 12 15 3 7 6 5 5 9 15 10 20 10 13 7 8 6 7 4 9
16 16 15 17 17 18 18 22 24 27 31 34 38 30 17 3 5 4 5 4 6 4 4 8 16 5 6 19 7 9 8 4 6 4 9 11 10 16 16 21 9 13 4 9 5 1 2
14 15 15 16 16 15 17 19 22 26 30 32 27 14 14 7 9 6 5 5 5 4 7 9 5 5 14 16 9 7 6 7 10 5 3 4 4 7 18 7 20 8 8 2 2 3 8
15 16 15 16 16 14 15 18 20 24 28 23 9 4 5 14 15 5 2 6 7 11 10 5 13 9 11 7 4 6 5 9 10 8 5 1 4 7 7 6 17 4 4 5 3 4 7
16 16 15 15 15 13 13 15 17 21 27 18 6 2 7 14 3 0 2 4 6 19 25 15 7 8 4 2 5 6 5 3 14 5 5 2 3 3 10 16 10 2 5 6 8 10 1
16 15 14 13 13 12 11 12 14 16 20 11 3 3 7 4 1 3 6 7 9 9 7 7 4 6 3 2 3 3 7 9 12 8 3 4 2 5 10 7 9 6 9 6 4 4 16
15 16 13 12 12 10 9 10 11 12 14 12 2 4 4 4 1 3 5 7 10 10 8 4 3 7 8 7 2 4 6 6 11 6 12 6 0 4 4 12 9 4 2 2 6 4 6
14 15 13 11 10 8 9 9 9 10 13 8 1 3 1 4 4 6 2 5 8 8 7 6 8 5 3 6 7 8 6 10 15 8 3 1 4 2 8 11 7 2 6 9 8 11 2
14 13 12 10 9 9 9 7 8 9 12 1 1 3 4 4 5 6 3 6 16 8 7 8 6 11 6 1 1 11 10 6 6 8 4 3 4 3 3 9 7 11 11 11 15 9 6
14 13 11 11 9 9 9 8 6 6 7 2 4 5 3 4 5 4 2 10 14 16 8 9 3 4 8 5 8 14 11 10 10 5 5 1 2 0 5 6 8 7 8 16 13 11 1
13 13 11 11 11 9 11 8 7 5 3 2 2 3 3 4 2 3 11 14 14 13 6 5 7 5 6 8 7 11 8 6 9 7 7 7 2 2 4 5 4 3 2 17 15 9 10
13 12 11 12 11 11 12 10 8 6 5 4 3 1 1 3 3 11 10 7 12 11 8 4 6 6 7 4 5 7 6 7 6 5 6 6 5 3 3 2 2 2 5 3 4 1 3
13 11 12 11 13 11 13 12 10 8 7 8 10 7 1 1 4 3 7 4 4 5 7 6 10 11 5 3 3 2 3 5 6 14 10 5 4 4 3 3 4 2 5 3 4 1 4
12 11 12 12 13 11 14 13 11 9 8 7 5 5 2 2 6 3 3 3 5 3 4 6 7 8 5 4 4 3 3 2 4 5 7 6 5 4 4 1 3 6 5 4 4 5 3
13 12 12 11 13 11 14 14 13 10 8 7 8 9 4 2 7 11 6 4 3 1 2 5 5 4 4 4 2 2 1 2 1 2 3 2 4 2 3 5 5 16 2 2 2 3 4
13 12 10 10 10 11 13 14 13 10 8 6 6 2 11 6 7 24 30 34 29 27 2 4 3 2 3 3 1 2 2 2 2 3 3 2 3 2 2 3 4 7 2 2 4 2 1
Wind_Direction
35 33 30 26 22 18 14 11 8 5 3 0 357 354 349 344 341 338 332 328 325 324 322 321 324 330 342 337 251 266 285 219 210 214 228 234 246 199 245 278 335 279 315 321 318 320 318
33 30 28 25 22 18 14 11 8 4 1 357 355 352 349 343 340 334 329 323 320 317 316 315 314 322 343 275 273 282 241 223 216 198 210 215 237 209 275 266 304 280 314 319 315 305 307
27 26 24 23 20 17 13 10 7 5 0 356 353 350 347 342 339 334 328 322 316 313 312 309 307 307 247 239 275 314 253 249 230 207 205 225 233 59 335 315 283 327 347 321 306 303 294
18 17 17 16 14 12 9 6 6 3 359 358 355 350 346 342 338 333 327 320 314 314 305 301 294 167 241 274 286 275 251 245 253 224 229 245 243 245 199 263 353 4 10 319 288 319 294
9 7 6 6 6 4 5 1 2 359 357 357 353 349 346 342 339 335 328 320 318 307 313 287 152 151 269 294 261 262 248 224 237 236 236 254 234 205 331 67 357 9 256 271 294 288 280
356 356 355 357 357 357 356 356 354 352 353 351 349 347 344 342 339 336 327 327 335 41 60 55 41 4 278 275 287 322 298 226 204 219 294 259 146 184 42 88 237 241 268 272 264 290 303
342 345 345 347 347 347 346 345 346 347 346 347 347 346 342 339 338 335 338 353 9 351 351 278 261 235 299 289 295 284 288 235 192 161 202 261 127 223 227 204 233 224 242 263 276 277 261
326 329 332 333 335 338 341 342 343 344 345 344 344 343 343 337 337 337 359 352 281 308 295 268 259 256 256 267 296 289 289 201 166 215 216 191 230 235 223 228 233 242 251 266 278 266 225
318 318 321 325 329 332 335 336 339 340 340 340 342 341 340 337 338 5 336 310 339 347 306 280 240 245 233 204 238 260 177 253 216 212 219 220 243 257 228 244 242 252 237 260 244 282 330
312 315 316 316 322 325 328 330 332 336 336 336 338 338 338 338 349 332 313 339 345 349 26 277 259 271 128 182 273 237 251 198 262 207 216 219 254 245 255 252 233 252 255 245 260 37 256
309 308 312 312 319 321 323 326 329 332 332 333 335 335 333 341 307 311 310 329 336 37 345 273 279 157 182 156 270 254 234 204 231 229 152 226 228 246 242 241 248 251 257 249 235 219 54
304 303 304 312 314 318 320 323 328 329 331 331 331 329 329 330 301 298 333 325 336 51 256 300 339 349 345 325 266 276 202 161 196 231 244 227 217 236 237 255 248 261 248 32 58 110 293
299 298 299 301 307 314 319 323 326 329 331 331 328 323 319 299 253 306 321 0 44 150 319 304 338 344 330 316 321 338 209 241 189 177 247 257 254 259 250 274 279 224 69 283 324 344 244
313 307 308 308 304 309 315 321 324 327 330 331 326 323 320 286 273 312 350 54 148 263 273 314 332 321 290 8 333 341 296 238 264 190 231 231 262 235 258 206 248 244 159 174 207 222 257
322 320 311 312 312 309 311 316 323 328 330 335 327 327 316 12 138 171 72 82 214 237 319 344 328 306 322 338 333 0 327 349 245 141 232 228 237 245 237 262 164 258 188 207 152 87 49
313 319 321 321 315 306 311 318 325 329 331 339 327 321 299 138 162 123 74 225 243 240 304 303 289 275 306 317 327 14 330 2 341 43 228 357 358 265 245 237 258 182 232 254 13 168 265
301 307 313 314 319 312 313 318 327 330 333 342 329 350 290 164 161 59 152 237 277 272 273 237 280 275 294 308 295 316 312 306 350 325 339 181 132 286 330 239 244 225 210 107 350 144 212
295 294 300 308 313 312 309 315 329 334 343 353 354 340 93 154 48 84 191 225 272 300 303 282 212 241 230 324 336 347 321 276 325 274 38 312 231 270 250 274 246 271 287 229 209 255 252
290 295 294 299 304 299 304 313 329 340 356 347 343 265 321 172 187 281 290 282 282 290 310 338 295 333 310 310 354 294 326 311 332 342 68 297 327 355 340 344 302 255 255 227 174 27 230
288 289 288 288 300 291 293 309 325 336 349 351 15 352 321 33 129 35 342 297 317 308 301 317 342 27 8 336 323 275 319 314 330 326 0 85 176 114 209 251 272 285 16 360 97 161 250
286 280 282 283 290 273 279 297 313 328 341 341 121 266 190 317 319 326 281 266 298 320 342 351 356 13 9 328 328 351 326 321 325 295 343 140 237 54 261 271 243 67 38 20 62 9 156
286 282 276 274 278 262 270 286 302 324 340 324 64 42 343 283 301 336 345 320 325 313 7 316 8 336 341 349 137 314 318 309 256 310 34 338 304 169 284 303 65 59 27 77 59 12 343
281 282 271 256 266 248 254 270 290 319 350 336 332 333 104 282 324 358 310 327 337 344 310 312 300 25 336 323 316 296 260 247 245 259 313 38 205 243 264 294 266 32 353 89 79 49 166
275 281 270 235 250 238 240 254 268 283 313 333 332 329 50 279 333 297 318 323 338 334 284 320 22 36 274 308 290 324 301 287 277 231 185 193 172 178 250 359 42 226 344 114 109 63 70
267 271 271 244 232 235 231 235 251 260 270 283 266 2 84 284 318 300 344 323 316 331 341 316 350 276 297 342 0 339 330 7 309 346 294 188 150 163 136 58 126 237 229 320 358 287 318
260 263 270 256 218 233 231 227 234 245 258 282 289 239 263 153 261 37 315 308 321 327 333 305 338 327 344 55 37 325 325 322 330 336 341 13 58 132 134 118 199 10 336 353 291 262 221
257 258 265 253 213 225 229 224 231 235 245 270 273 248 249 238 267 107 274 322 293 336 273 303 341 334 22 26 39 8 324 347 9 9 327 345 355 12 3 52 109 18 304 327 77 261 250
253 252 262 247 204 220 221 219 222 226 235 262 274 266 242 246 276 249 253 215 306 245 231 295 355 350 12 59 58 311 72 305 352 195 303 343 349 353 318 43 3 345 57 298 227 104 188
247 245 256 214 202 218 215 216 218 218 228 256 281 267 322 203 250 283 275 265 252 240 218 306 236 286 224 97 225 229 346 344 286 332 187 350 162 226 67 173 250 289 53 25 9 357 338